Location: ??
(35.4627°N, 139.3695°E)
Time: 15:16:43
(UTC+00:00)

Cosmos 2154 Rocket - Pass Details

Date: 25 November 2020
Orbit: 966 x 996 km, 82.9° (Epoch: 21 January)

Event Time Altitude Azimuth Distance (km) Brightness Sun altitude
Rises 20:44:28 0° 185° (S) 3,640 7.2 -9.1°
Reaches altitude 10° 20:46:57 10° 185° (S) 2,698 6.5 -8.7°
Maximum altitude 20:53:08 88° 273° (W) 977 4.0 -7.5°
Drops below altitude 10° 20:59:24 10° 6° (N) 2,731 6.2 -6.3°
Sets 21:01:56 0° 7° (N) 3,687 6.9 -5.8°
